ATLAS AGENA B DEB, 631

Orbit data source: Space-Track

ATLAS AGENA B DEB, 631 is space debris in LEO originally from a launch on Fri, 19 Jul 1963 UTC launched from the Air Force Western Test Range (AFWTR). Debris objects in space refer to the collection of defunct objects orbiting the Earth. Examples of debris include non-operational satellites, rocket bodies, and fragments generated from explosions, collisions, or faulty payload assembly.

Loading next visibility...
ATLAS AGENA B DEB details
Identifier
631, 1963-030E
Orbit
LEO
Last TLE update1 day ago
Origin
Flag of USUSAF SSD (US)
ManufacturerUnknown
MissionSpacecraft
Bus & MotorUnknown
Mass~10 kg wet, ~10 kg dry
Launch date (UTC)
1963-07-19 (61 years ago)
Launch vehicleUnknown
Launch site
Air Force Western Test Range (AFWTR)
Object type
Payload
Rocket body
Debris
Shape & HBRBox, 1.5 m
Radar Cross Section1.575 m², Medium (>0.1 m² and < 1m²)

Expand to show TLE details & history

TLE from 1 day ago
0 ATLAS AGENA B DEB
1 00631U 63030E   24355.07767989  .00000002  00000-0  00000-0 0  9996
2 00631  88.3952 247.2774 0173037 263.9333  94.1775  8.55878935919088
Epoch: 2024-12-20T01:51Z
Definitive object data (Epoch: 2024-12-20T01:51:51.542Z)
Latitude0.00002°
Longitude130.16428°
Altitude3,735.247 km
Speed6.274 km/s
True Right ascension16h 29m 06s
True Declination0° 00' 00"
Sunlit
Object was in daylight at TLE epoch
Visualization TLE readout
Latitude-49.25772°
Longitude-48.06197°
Altitude3,589.356 km
Speed6.371 km/s
Apparent Right ascension02h 49m 06s
Apparent Declination-49° 59' 12"
Sunlit
Object is in daylight
Visualization observer readout
Local Sidereal Time12:21:55
Azimuth236.278° WSW
Elevation-62.418°
Doppler factor1
Orbital elements
Apogee altitude3,889.823 km
Perigee altitude3,540.52 km
Semi-major axis10,093.309 km
Eccentricity0.0173037
Inclination88.3952°
RAAN247.2774°
Arg. of periapsis263.9333°
True anomaly96.15159°
Mean anomaly94.1775°
Eccentric anomaly95.1649°
Mean motion2.14039 °/min
BSTARUnknown
Orbital period168.19 mins
Loading maneuver chart data...
Loading historical data...
Loading historical data...
Loading historical data...
Loading historical data...
Loading historical data...
Loading historical data...
Loading historical data...

ATLAS AGENA B DEB Visibility forecast

Observer location: undefined°, undefined

Span
Click to sort rows by Start time (UTC) header in descending order
Start Az.
Max El. time (UTC)
Max El. Az.
Max El.
End time (UTC)
End Az.
26 mins2024-12-21 14:30:58.983Z99.65° ESE2024-12-21 14:43:58.983Z55.19° ENE22.096°2024-12-21 14:56:58.983Z12.928° NNE
38 mins2024-12-21 17:08:58.983Z172.953° S2024-12-21 17:26:58.983Z94.339° ESE44.977°2024-12-21 17:46:58.983Z1.198° NNE
29 mins2024-12-21 20:04:58.983Z248.973° W2024-12-21 20:18:58.983Z298.352° NW22.919°2024-12-21 20:33:58.983Z349.098° N
29 mins2024-12-22 02:22:58.983Z14.161° NNE2024-12-22 02:36:58.983Z63.624° ENE23.81°2024-12-22 02:51:58.983Z116.398° SE
37 mins2024-12-22 05:09:58.983Z358.615° N2024-12-22 05:27:58.983Z299.735° NW44.867°2024-12-22 05:46:58.983Z189.05° SSW
24 mins2024-12-22 07:59:58.983Z343.433° N2024-12-22 08:11:58.983Z302.947° NW20.983°2024-12-22 08:23:58.983Z262.511° W
|